[[{"header":{"parameterUnit":"m.s-1","parameterCategory":1,"la1":30.2991,"la2":30.254,"lo1":-89.0895,"lo2":-89.0444,"dy":0.0017,"dx":0.0017,"nx":28,"ny":28,"refTime":"2024-04-24T03:00:00:Z","depth":0,"parameterNumber":2,"parameterNumberName":"U-component_of_WINDS"},"data":[0,0,0,0,0,0,0,0,0,0,0,0,0,0,0,0,0,0,0,0,0,0,0,0,0,0,0,0,0,0,0,0,0,0,0,0,0,0,0,0,0,0,0,0,0,0,0,0,0,0,0,0,0,0,0,0,0,0,-0.2192,-0.2191,0,-0.2087,-0.2086,-0.2085,-0.1989,-0.1988,-0.1987,-0.1985,-0.1878,-0.1877,-0.1875,0,0,0,0,0,0,0,0,0,0,0,0,0,-0.2312,-0.2311,-0.2192,-0.2191,-0.219,-0.2087,-0.2086,-0.2084,-0.1989,-0.1988,-0.1986,-0.1985,-0.1879,-0.1877,-0.1875,0,0,0,0,0,0,0,0,0,0,0,0,0,-0.2239,-0.231,-0.2193,-0.213,-0.2123,-0.2087,-0.2086,-0.2084,-0.1989,-0.1988,-0.1986,-0.1984,-0.188,-0.1877,-0.1874,-0.1893,0,0,-0.1866,-0.1865,0,0,0,0,0,0,0,0,-0.2243,-0.2235,-0.214,-0.2134,-0.2127,-0.2049,-0.2089,-0.202,-0.199,-0.204,-0.1985,-0.1983,-0.1937,-0.1929,-0.1913,-0.1888,-0.1883,-0.1866,-0.1864,-0.1863,-0.1863,0,0,0,0,0,0,0,-0.2249,-0.2239,-0.2151,-0.2139,-0.2131,-0.2107,-0.2095,-0.2075,-0.1999,-0.2036,-0.2028,-0.2017,-0.1933,-0.1916,-0.191,-0.1881,-0.1866,-0.1864,-0.1862,-0.1861,-0.1866,-0.1868,0,0,0,0,0,0,-0.2263,-0.2244,-0.2154,-0.2147,-0.2182,-0.2107,-0.2093,-0.2076,-0.1999,-0.1986,-0.2019,-0.2013,-0.1922,-0.1913,-0.1906,-0.1923,-0.1863,-0.1861,-0.1859,-0.1865,-0.1867,-0.1869,0,0,0,0,0,0,-0.2266,-0.2256,-0.2158,-0.2194,-0.2179,-0.2106,-0.2088,-0.2075,-0.2058,-0.1987,-0.1973,-0.2016,-0.192,-0.191,-0.1897,-0.1918,-0.186,-0.1857,-0.1863,-0.1865,-0.1868,-0.1958,0,0,0,0,0,0,-0.227,-0.2258,-0.2264,-0.2194,-0.2178,-0.2151,-0.2089,-0.2074,-0.2054,-0.2045,-0.198,-0.1968,-0.1918,-0.1901,-0.1894,-0.1913,-0.1855,-0.186,-0.1864,-0.1867,-0.1953,-0.1963,-0.1972,0,0,0,0,0,-0.2275,-0.2293,-0.2264,-0.2254,-0.2184,-0.2152,-0.2143,-0.2085,-0.2056,-0.2061,-0.2016,-0.197,-0.1917,-0.1901,-0.1892,-0.1911,-0.1859,-0.1863,-0.1867,-0.1948,-0.1961,-0.1972,0,0,0,0,0,0,-0.2367,-0.2283,-0.225,-0.2247,-0.2207,-0.2136,-0.2142,-0.21,-0.2068,-0.2062,-0.1991,-0.1977,-0.1973,-0.194,-0.1924,-0.1925,-0.1882,-0.1884,-0.1947,-0.1958,-0.1968,-0.1977,-0.1853,0,0,0,0,0,-0.2387,-0.2368,-0.2296,-0.23,-0.2282,-0.2215,-0.2199,-0.2158,-0.2115,-0.2098,-0.2051,-0.2011,-0.1985,-0.1969,-0.1942,-0.1947,-0.1932,-0.1955,-0.1965,-0.1974,-0.1977,-0.1979,-0.1989,-0.1882,-0.1881,-0.1881,0,0,-0.2428,-0.238,-0.2372,-0.2317,-0.2282,-0.2265,-0.2202,-0.2186,-0.2173,-0.2095,-0.2081,-0.2045,-0.1995,-0.1992,-0.1988,-0.1965,-0.2003,-0.1979,-0.1986,-0.1984,-0.1984,-0.1994,-0.2003,-0.1884,-0.1884,-0.1883,0,0,-0.2495,-0.2456,-0.2455,-0.2421,-0.2368,-0.2324,-0.2324,-0.2259,-0.2233,-0.2217,-0.2158,-0.2141,-0.2098,-0.2066,-0.2044,-0.2099,-0.2056,-0.2091,-0.2143,-0.2146,-0.2154,-0.2161,-0.2182,-0.2191,-0.2094,-0.2095,-0.2095,0,-0.2553,-0.2524,-0.2461,-0.2449,-0.2427,-0.2355,-0.2355,-0.2324,-0.2266,-0.2253,-0.2227,-0.2172,-0.2133,-0.2122,-0.2136,-0.2119,-0.2118,-0.2099,-0.2158,-0.2164,-0.217,-0.219,-0.2197,-0.2099,-0.2099,-0.2098,-0.2098,0,-0.2599,-0.258,-0.2586,-0.2532,-0.251,-0.2504,-0.244,-0.2426,-0.2386,-0.2345,-0.233,-0.2281,-0.2243,-0.2237,-0.2198,-0.222,-0.2208,-0.2171,-0.2126,-0.2186,-0.2203,-0.221,-0.2106,-0.2105,-0.2103,-0.2102,0,0,-0.2722,-0.2632,-0.2636,-0.261,-0.2547,-0.2531,-0.2522,-0.2484,-0.2474,-0.2436,-0.2427,-0.2393,-0.2358,-0.2333,-0.229,-0.2292,-0.234,-0.2255,-0.2252,-0.2274,-0.2364,-0.2394,-0.2403,-0.2311,-0.2312,-0.2313,-0.2369,0,-0.278,-0.2759,-0.2702,-0.2699,-0.2682,-0.2613,-0.2605,-0.2566,-0.2527,-0.2507,-0.2464,-0.2441,-0.2396,-0.2381,-0.238,-0.2335,-0.2358,-0.233,-0.2304,-0.2303,-0.232,-0.2412,-0.2443,-0.2498,-0.2375,-0.2376,-0.2377,0,-0.2844,-0.2811,-0.2807,-0.2744,-0.2735,-0.2729,-0.269,-0.2671,-0.2626,-0.2597,-0.257,-0.2521,-0.2509,-0.2466,-0.2449,-0.2431,-0.2417,-0.2393,-0.2394,-0.239,-0.2345,-0.2413,-0.2514,-0.2523,-0.2386,-0.2385,-0.2385,0,-0.2937,-0.289,-0.2882,-0.2862,-0.2789,-0.2787,-0.2756,-0.2708,-0.269,-0.2656,-0.2643,-0.2608,-0.259,-0.2564,-0.2508,-0.2482,-0.2498,-0.245,-0.2475,-0.2476,-0.2482,-0.2483,-0.2585,-0.2471,-0.247,-0.247,-0.247,0,-0.3008,-0.3009,-0.2923,-0.2918,-0.2917,-0.285,-0.2851,-0.2814,-0.2773,-0.276,-0.2698,-0.2687,-0.2613,-0.2594,-0.255,-0.2543,-0.2535,-0.2512,-0.2501,-0.2519,-0.2522,-0.251,-0.2505,-0.2472,-0.2472,-0.2471,-0.2471,0,-0.3112,-0.3054,-0.3041,-0.2973,-0.2956,-0.2958,-0.29,-0.2893,-0.285,-0.2835,-0.2827,-0.2761,-0.2735,-0.2676,-0.2635,-0.2605,-0.261,-0.2588,-0.2626,-0.262,-0.2648,-0.2647,-0.2747,-0.2757,-0.2635,-0.2637,-0.2638,0,-0.3163,-0.3162,-0.3093,-0.308,-0.3052,-0.3032,-0.3012,-0.2947,-0.293,-0.2877,-0.2877,-0.2847,-0.2819,-0.2782,-0.273,-0.2699,-0.2676,-0.2713,-0.2671,-0.269,-0.2679,-0.2681,-0.2681,-0.2724,-0.2725,-0.2727,-0.2728,0,-0.3259,-0.323,-0.3205,-0.3169,-0.3148,-0.3117,-0.3082,-0.3075,-0.3002,-0.2985,-0.2959,-0.2937,-0.2895,-0.2867,-0.2827,-0.2796,-0.2751,-0.2741,-0.2745,-0.2765,-0.2788,-0.2778,-0.2654,-0.274,-0.2738,-0.2737,-0.2737,-0.2736,-0.3339,-0.3335,-0.3287,-0.326,-0.3227,-0.3197,-0.3187,-0.3143,-0.312,-0.308,-0.3043,-0.3021,-0.2975,-0.2917,-0.2889,-0.2871,-0.2848,-0.2854,-0.2855,-0.2858,-0.2867,-0.2789,-0.2863,-0.2863,-0.2862,-0.2862,-0.2862,0,-0.3434,-0.3399,-0.3375,-0.3329,-0.3309,-0.3266,-0.3226,-0.3212,-0.3193,-0.3154,-0.3128,-0.3098,-0.307,-0.3015,-0.2983,-0.2979,-0.2957,-0.2972,-0.2973,-0.2967,-0.2889,-0.2889,-0.2991,-0.2991,-0.2991,-0.2991,-0.2991,-0.299,-0.3481,-0.3473,-0.3438,-0.3414,-0.3378,-0.3356,-0.3337,-0.3309,-0.3277,-0.3246,-0.3223,-0.3187,-0.3142,-0.3106,-0.3078,-0.3063,-0.3055,-0.3077,-0.3056,-0.2984,-0.2972,-0.2961,-0.2961,-0.3076,-0.3076,-0.3136,-0.3136,-0.3137]},{"header":{"parameterUnit":"m.s-1","parameterCategory":1,"la1":30.2991,"la2":30.254,"lo1":-89.0895,"lo2":-89.0444,"dy":0.0017,"dx":0.0017,"nx":28,"ny":28,"refTime":"2024-04-24T03:00:00:Z","depth":0,"parameterNumber":3,"parameterNumberName":"V-component_of_WINDS"},"data":[0,0,0,0,0,0,0,0,0,0,0,0,0,0,0,0,0,0,0,0,0,0,0,0,0,0,0,0,0,0,0,0,0,0,0,0,0,0,0,0,0,0,0,0,0,0,0,0,0,0,0,0,0,0,0,0,0,0,2.5352,2.5352,0,2.5331,2.533,2.533,2.5336,2.5336,2.5336,2.5337,2.531,2.5309,2.5308,0,0,0,0,0,0,0,0,0,0,0,0,0,2.5395,2.5394,2.5352,2.5352,2.5352,2.5331,2.533,2.533,2.5335,2.5336,2.5336,2.5337,2.5311,2.5309,2.5308,0,0,0,0,0,0,0,0,0,0,0,0,0,2.5375,2.5394,2.5352,2.5352,2.5352,2.5331,2.533,2.533,2.5335,2.5336,2.5337,2.5337,2.5311,2.5309,2.5308,2.5284,0,0,2.5303,2.5302,0,0,0,0,0,0,0,0,2.5376,2.5373,2.5352,2.5352,2.5352,2.5337,2.5336,2.5315,2.5335,2.5341,2.5337,2.5338,2.5318,2.5316,2.531,2.5283,2.5282,2.5302,2.5301,2.5301,2.53,0,0,0,0,0,0,0,2.5378,2.5374,2.5344,2.5352,2.5352,2.5352,2.535,2.5332,2.5326,2.5341,2.5341,2.5339,2.5318,2.5312,2.531,2.5282,2.5302,2.5301,2.53,2.5299,2.5235,2.5235,0,0,0,0,0,0,2.538,2.5376,2.5344,2.5343,2.5366,2.5351,2.5348,2.5341,2.5326,2.5325,2.5338,2.5339,2.5314,2.5312,2.5309,2.5281,2.5301,2.5299,2.5298,2.5236,2.5235,2.5235,0,0,0,0,0,0,2.5381,2.5377,2.5345,2.5359,2.5355,2.5349,2.5341,2.534,2.5334,2.5325,2.5323,2.5333,2.5315,2.5311,2.5291,2.528,2.5298,2.5297,2.5237,2.5236,2.5235,2.5225,0,0,0,0,0,0,2.5382,2.5377,2.5369,2.5359,2.5355,2.5329,2.534,2.5339,2.5331,2.5332,2.5319,2.5318,2.5315,2.5294,2.5289,2.5278,2.5296,2.5238,2.5237,2.5235,2.5227,2.5224,2.5222,0,0,0,0,0,2.5383,2.5366,2.5368,2.5364,2.5344,2.5328,2.5325,2.5323,2.5331,2.5322,2.5316,2.5318,2.5283,2.5291,2.5287,2.5275,2.5239,2.5237,2.5235,2.5228,2.5225,2.5222,0,0,0,0,0,0,2.5372,2.5364,2.5367,2.5346,2.5338,2.5329,2.5318,2.532,2.5308,2.531,2.5307,2.5304,2.5284,2.5277,2.5287,2.5252,2.5261,2.5259,2.5257,2.5254,2.5252,2.5253,2.5294,0,0,0,0,0,2.5368,2.5356,2.535,2.5332,2.5328,2.5323,2.5316,2.5316,2.5307,2.5303,2.5295,2.5285,2.5272,2.5263,2.525,2.5226,2.5223,2.5216,2.5214,2.5212,2.5209,2.5197,2.5194,2.5229,2.5229,2.5229,0,0,2.5357,2.5352,2.5344,2.5329,2.5323,2.531,2.532,2.5306,2.5296,2.53,2.5281,2.5276,2.5264,2.5243,2.5233,2.5237,2.5199,2.521,2.5209,2.5207,2.5195,2.5192,2.5189,2.5228,2.5229,2.5229,0,0,2.5332,2.5327,2.5312,2.5306,2.5297,2.5295,2.5291,2.5282,2.5279,2.5261,2.5263,2.5252,2.5228,2.522,2.5213,2.5188,2.5189,2.5183,2.5171,2.5159,2.5156,2.5154,2.5145,2.5141,2.5181,2.5181,2.5181,0,2.5319,2.5302,2.5303,2.529,2.5283,2.5288,2.5272,2.5266,2.5252,2.5247,2.5253,2.5225,2.5217,2.5194,2.5189,2.5183,2.5178,2.5184,2.5157,2.5154,2.5152,2.5143,2.514,2.518,2.518,2.518,2.5181,0,2.5287,2.5275,2.5264,2.5253,2.5245,2.5231,2.5229,2.5221,2.5222,2.5219,2.52,2.5192,2.5178,2.5173,2.5173,2.515,2.5153,2.5158,2.5166,2.5148,2.514,2.5136,2.5179,2.518,2.518,2.518,0,0,2.5252,2.5244,2.524,2.5236,2.5227,2.5217,2.5203,2.5191,2.5185,2.5176,2.5163,2.5145,2.515,2.5142,2.5141,2.5131,2.5111,2.5137,2.5136,2.5132,2.5086,2.5083,2.5079,2.5113,2.5113,2.5112,2.5087,0,2.5226,2.5203,2.5204,2.5182,2.5171,2.5176,2.5164,2.5157,2.5154,2.5144,2.514,2.5128,2.5135,2.513,2.5121,2.5116,2.5102,2.5118,2.5101,2.51,2.5103,2.5074,2.507,2.5047,2.5084,2.5084,2.5083,0,2.5192,2.5184,2.5161,2.5156,2.5151,2.514,2.513,2.512,2.5113,2.5112,2.5104,2.5106,2.5091,2.5101,2.5081,2.5092,2.5085,2.5082,2.5081,2.5078,2.509,2.507,2.5039,2.5036,2.5078,2.5078,2.5079,0,2.5169,2.5152,2.5137,2.5133,2.5126,2.5118,2.5115,2.5109,2.5102,2.5093,2.5088,2.5077,2.5071,2.5062,2.5061,2.5068,2.504,2.505,2.5038,2.5038,2.503,2.5031,2.4997,2.5027,2.5028,2.5028,2.5028,0,2.5139,2.5124,2.5126,2.5117,2.5101,2.5103,2.5087,2.5084,2.5079,2.5068,2.5072,2.5062,2.5061,2.505,2.5049,2.5032,2.5029,2.5027,2.5027,2.5027,2.5027,2.5021,2.5023,2.5027,2.5027,2.5027,2.5027,0,2.5109,2.511,2.5094,2.509,2.5089,2.5077,2.5073,2.5064,2.5063,2.5049,2.5046,2.5044,2.5031,2.503,2.5015,2.5014,2.4994,2.4996,2.4997,2.4997,2.4985,2.4986,2.4946,2.4941,2.4975,2.4975,2.4974,0,2.509,2.5079,2.5075,2.5069,2.5066,2.5056,2.505,2.5052,2.5045,2.5037,2.5029,2.5017,2.5008,2.4989,2.4985,2.4974,2.4975,2.4962,2.4973,2.4973,2.4974,2.4975,2.4974,2.4959,2.4959,2.4958,2.4958,0,2.5055,2.5056,2.5048,2.5041,2.5034,2.5027,2.5021,2.5016,2.5017,2.501,2.4999,2.4992,2.4978,2.4967,2.4956,2.4952,2.4955,2.4955,2.4952,2.495,2.4952,2.4951,2.499,2.4955,2.4956,2.4956,2.4956,2.4956,2.5029,2.5021,2.5017,2.5008,2.5004,2.4999,2.4991,2.4989,2.4981,2.4971,2.4972,2.496,2.4954,2.4941,2.4936,2.4926,2.493,2.4925,2.4923,2.4922,2.4921,2.4955,2.4924,2.4924,2.4924,2.4924,2.4924,0,2.4994,2.4993,2.4985,2.4978,2.4971,2.4977,2.4971,2.4964,2.4954,2.4949,2.4941,2.4928,2.4918,2.4915,2.4904,2.4897,2.4898,2.4894,2.4894,2.4893,2.4917,2.4921,2.4893,2.4893,2.4893,2.4893,2.4893,2.4893,2.4975,2.4961,2.4963,2.4947,2.4945,2.4934,2.4931,2.4926,2.4922,2.4909,2.4901,2.49,2.4895,2.4885,2.4876,2.4875,2.4871,2.4866,2.4866,2.4888,2.4891,2.4894,2.4898,2.4865,2.4865,2.4842,2.4842,2.4842]}]]